sat.trackr.live / text

‹ back to catalog

BLACKJACK ACES-2

NORAD 56955 · 2023-084Z

PAYLOAD ACTIVE UNKNOWN

§ Identity

Operator
Country
US
Launch date
2023-06-12
Launch site
AFWTR
Launch vehicle
Mass (kg)
RCS (m²)

External: N2YO · Heavens-Above · Gunter

§ Orbital elements

Epoch: 2026-05-25T02:40:41.443392Z

Period
94.84 min
Inclination
97.6174°
Eccentricity
0.0002154
Mean motion
15.18270851 rev/d
Perigee alt
509.6 km
Apogee alt
512.6 km
Semi-major
6,889.2 km
B*
3.0792e-4
RAAN
280.2192°
Arg perigee
87.6264°
Mean anomaly
272.5216°
Rev number
16,367

§ Raw data

BLACKJACK ACES-21 56955U 23084Z   26145.11159078  .00006241  00000+0  30792-3 0  99932 56955  97.6174 280.2192 0002154  87.6264 272.5216 15.18270851163671

JSON: /api/v1/satellites/56955 · /tle

For live sub-satellite position, see the globe view (requires WebGL).

§ Visibility from observer

Set your observer location to see the next 7 days of passes ≥ 10°. The values pass through the URL so the page stays shareable.

No JS? Fill the form by hand. The geolocation button needs JavaScript.

§ Radio — SatNOGS DB

ModeDescriptionDownlinkUplink
BPSK S-band telemetry 2.265 GHz

1 transmitter · refreshed weekly from db.satnogs.org